Погода в Болдыревке

Россия / Амурская область     50°13′29″N   129°29′43″E
темп.,
°C
ветер,
м/с
пор.,
м/с
влажн.,
%
обл.,
%
осадки,
мм/ч
давл.,
гПа
погр.,
м
19 января, ср
ср1900:00−30ссз23100100 0.0 103528
03:00−31сз2310016 0.0 103530
06:00−31сз231005 0.0 103542
09:00−32сз221005 0.0 103539
12:00−22сз35895 0.0 1033234
15:00−20зсз358751 0.0 1032268
18:00−29сз22995 0.0 10339
21:00−32сз1210055 0.0 10339
20 января, чт
чт2000:00−33сз1110050 0.0 10349
03:00−34ссз1110052 0.0 10349
06:00−34с1110044 0.0 10349
09:00−34ссз2210027 0.0 103617
12:00−23ссз239159 0.0 1034227
15:00−20сз238940 0.0 1034286
18:00−29сз221005 0.0 103712
21:00−32сз2210087 0.0 10379
21 января, пт
пт2100:00−31сз1110094 0.0 10379
03:00−31зсз1110017 0.0 10389
06:00−33ю0010053 0.0 10389
09:00−33ю0010035 0.0 10389
12:00−21зсз239112 0.0 1036190
15:00−19сз24865 0.0 1035271
18:00−27ссз22995 0.0 10369
21:00−30с1110020 0.0 10369
22 января, сб
сб2200:00−31с1110018 0.0 10359
03:00−32ссв1110046 0.0 10359
06:00−33ссв1110026 0.0 10359
09:00−32ссв1110023 0.0 103510
12:00−21ссз12885 0.0 1033183
15:00−18сз22855 0.0 1032264
18:00−27ссз22995 0.0 10339
21:00−30ссз221008 0.0 10339
23 января, вс
вс2300:00−31ссз1110025 0.0 10339
03:00−32ссз1110030 0.0 10339
06:00−33ссз1110018 0.0 10339
09:00−32зсз11100100 0.0 103310
12:00−21зсз239590 0.0 1032209
15:00−19зсз249035 0.0 1031262
18:00−26сз221005 0.0 103210
21:00−29ссз1110053 0.0 10329